RH
51 44 36 30 25 21 18 18 15 11 5 3 4 4 5 7 9 10 8 6 4 3 2 1 1 1 1 1 2 2 2 2 2 2 2 2 2 2 2 2 2 2 2
59 47 36 32 26 24 20 18 16 11 6 4 5 7 9 10 11 9 7 4 3 2 2 1 1 2 2 2 2 2 2 2 2 2 2 2 2 2 2 2 2 2 2
62 49 38 29 26 22 18 15 15 10 6 7 11 13 12 12 11 9 5 3 2 2 2 1 1 2 2 2 2 2 2 3 4 4 4 3 3 3 2 2 2 2 2
61 48 37 30 20 16 13 11 12 11 7 8 12 14 13 12 10 7 4 3 2 2 2 1 2 2 2 2 2 2 4 4 4 4 4 3 3 3 3 3 4 3 3
64 52 42 33 23 14 11 8 8 8 8 12 14 14 14 12 8 5 4 3 2 2 2 2 2 2 2 2 2 4 5 5 4 4 4 4 4 4 5 5 5 5 5
68 59 44 36 25 15 9 8 7 8 10 15 16 15 14 12 8 5 4 3 2 2 2 2 2 2 2 3 5 6 5 4 3 4 4 5 6 6 6 6 6 7 7
68 64 48 37 26 14 9 7 7 10 14 17 17 16 15 12 9 6 4 3 3 2 2 2 2 4 6 7 7 6 4 4 5 5 6 6 6 6 7 6 8 10 11
68 65 56 41 31 16 8 7 9 15 19 20 18 17 16 14 10 7 5 4 3 3 3 3 4 6 7 7 5 4 4 5 5 6 7 7 7 8 8 9 13 14 15
63 62 58 47 37 16 10 8 12 19 22 22 20 19 17 15 12 9 7 4 4 4 4 5 5 6 6 5 4 5 6 6 7 8 9 9 9 11 12 16 17 18 18
61 58 59 51 44 15 11 12 15 20 24 23 21 20 18 16 14 11 7 5 4 5 5 6 5 5 5 5 6 6 7 8 10 11 11 11 13 16 17 18 19 20 19
68 56 51 48 46 19 11 14 17 23 26 25 23 21 19 18 16 13 8 6 5 5 6 6 5 5 6 8 9 8 9 11 16 16 15 16 19 20 19 18 19 19 15
71 51 39 46 43 23 11 13 17 24 28 28 25 22 20 18 16 15 11 8 6 6 6 6 6 6 8 10 10 9 15 19 22 22 21 24 27 27 20 14 13 12 10
71 58 32 27 29 23 13 12 15 20 28 31 29 25 22 20 18 16 12 9 8 7 6 6 6 7 9 10 9 16 23 24 23 22 24 27 35 30 19 12 12 10 11
73 70 53 30 21 19 12 12 15 18 25 31 34 31 27 23 20 18 15 12 10 9 7 7 7 7 8 9 11 20 22 24 24 24 27 34 36 16 12 13 11 10 12
85 77 61 51 39 18 12 11 14 18 23 29 35 38 35 30 25 22 20 17 15 13 9 8 8 8 9 13 16 16 20 24 22 21 26 40 36 15 8 10 10 10 13
79 72 55 44 47 22 12 12 13 16 22 29 37 44 42 38 32 27 23 20 18 18 13 11 9 9 12 15 14 13 17 18 19 19 16 21 13 8 8 10 12 11 14
63 51 50 39 52 29 14 13 13 16 23 29 39 45 45 44 37 30 26 24 22 19 16 13 12 12 12 15 14 14 15 19 21 21 15 13 12 9 9 11 12 12 14
39 33 34 36 63 72 24 16 14 14 24 32 37 42 48 47 42 44 39 32 27 24 21 17 14 13 13 14 18 18 16 24 28 32 20 16 13 10 13 14 14 13 14
29 27 30 30 46 74 76 38 24 22 29 36 39 47 51 52 53 52 48 41 36 33 26 20 17 16 14 16 16 15 19 26 31 38 27 18 13 15 16 20 18 15 14
35 30 33 33 42 74 80 97 84 39 36 38 46 49 56 58 57 57 54 48 43 40 27 22 20 19 18 18 21 18 20 24 30 32 27 18 14 16 18 22 20 14 14
40 40 36 35 43 58 74 82 97 94 72 50 50 55 61 64 65 63 55 46 41 36 30 27 29 31 21 25 28 20 20 30 34 34 22 18 14 17 23 22 16 13 16
49 44 44 43 42 52 68 82 87 97 98 95 55 61 65 68 69 65 53 46 42 42 36 34 37 35 26 23 24 21 24 33 41 32 18 14 15 21 24 22 18 14 18
94 61 54 53 49 46 58 68 90 100 96 93 88 74 67 66 60 57 51 46 42 40 37 33 33 32 29 24 23 26 33 46 43 19 15 16 19 23 25 22 15 16 18
94 92 62 68 66 66 70 91 99 96 86 75 69 66 62 61 59 55 52 48 44 42 40 37 34 33 33 30 29 40 55 41 23 21 27 34 33 28 22 16 15 18 17
97 94 95 86 86 95 97 92 82 69 63 62 71 65 63 62 61 57 55 55 54 49 43 40 38 34 30 37 60 63 34 34 26 26 34 32 29 21 16 15 19 19 16
89 87 95 96 97 98 95 90 91 87 90 82 77 77 81 77 75 66 68 67 58 52 53 46 39 38 52 64 64 41 44 46 37 34 34 31 25 15 15 19 20 18 13
Wind_Speed
15 15 14 13 12 11 9 7 5 4 3 4 5 4 4 2 1 2 3 3 4 6 7 8 7 7 8 8 9 10 11 11 12 13 14 15 16 16 17 18 19 19 20
19 16 15 14 12 11 9 8 6 4 4 4 4 3 3 2 2 3 4 4 5 6 7 7 7 7 7 8 9 10 10 11 12 13 14 16 17 18 19 20 20 20 20
20 18 16 14 12 11 10 8 6 5 5 5 4 3 3 3 3 4 5 5 5 6 7 7 7 8 8 9 9 10 11 12 13 14 16 17 18 19 20 21 22 23 22
19 17 16 15 12 11 10 9 7 6 7 7 5 4 4 4 4 4 5 5 5 6 7 7 8 8 9 9 9 10 11 12 13 14 15 16 17 19 19 20 22 23 23
21 18 17 16 14 12 12 11 9 8 8 7 6 5 4 5 5 5 5 6 6 7 7 8 8 9 9 9 10 10 12 13 13 14 15 16 17 18 19 21 22 22 23
22 19 17 16 15 13 12 12 11 11 10 9 7 5 5 6 5 5 6 6 6 7 7 8 9 9 10 10 11 12 13 14 14 14 15 16 17 19 20 22 23 24 25
25 22 18 17 16 13 13 14 13 12 12 10 8 5 6 6 6 5 6 6 7 7 7 8 9 10 11 12 12 13 14 14 15 16 17 18 19 20 22 22 23 25 25
26 23 20 19 18 15 13 14 14 13 12 10 9 7 7 7 6 5 6 6 7 7 8 9 10 11 12 13 14 14 15 16 17 18 19 19 20 22 23 23 24 25 25
29 27 23 21 21 18 16 15 16 14 12 11 10 9 8 7 6 6 6 7 8 8 9 10 11 12 12 13 15 16 16 17 18 19 19 20 22 23 23 24 25 25 26
31 29 25 24 23 21 19 18 17 15 13 12 11 10 9 8 6 7 7 8 9 10 11 12 12 12 13 14 15 17 18 19 20 21 22 23 24 24 25 27 26 27 27
33 32 28 27 25 25 22 21 19 17 15 14 13 13 11 10 9 9 9 9 10 11 12 13 14 14 15 16 18 19 21 22 23 24 25 26 27 27 28 29 30 29 29
35 33 32 29 28 27 26 24 23 21 18 17 16 15 13 12 12 12 12 12 12 13 15 15 16 16 17 19 20 21 23 24 25 26 26 27 28 29 30 31 32 31 31
38 37 35 31 30 30 30 27 25 23 21 19 18 17 16 14 14 14 13 13 14 14 15 16 17 18 19 20 21 23 25 27 27 28 28 29 29 29 31 33 32 32 31
41 38 34 31 29 29 31 29 27 25 24 21 19 18 17 17 16 16 16 15 15 16 17 17 18 19 21 22 23 24 26 28 30 30 31 31 30 32 32 33 34 33 32
42 40 38 34 31 30 31 31 29 27 25 23 21 20 19 19 18 18 18 18 17 18 19 19 20 22 23 24 26 27 28 30 31 33 33 32 33 35 34 34 34 34 33
45 43 41 37 34 32 32 32 30 29 27 25 24 23 22 21 21 21 21 20 19 21 21 22 23 24 25 27 28 29 30 31 33 35 35 34 36 36 35 36 35 35 33
46 44 43 40 36 35 34 34 33 31 30 29 27 26 25 25 24 23 23 22 22 23 24 25 26 27 28 29 30 31 31 33 35 38 37 38 38 37 37 37 38 37 35
46 43 42 39 37 35 35 36 36 35 34 32 31 30 30 28 26 24 25 26 25 26 27 28 29 30 30 31 33 33 33 35 37 41 40 40 40 39 37 39 40 40 36
46 45 43 40 39 36 37 38 38 37 37 36 35 34 33 31 28 28 28 29 29 29 30 31 31 32 33 34 35 36 37 37 40 43 42 43 42 39 40 42 42 41 38
47 46 43 42 40 38 38 39 42 38 40 38 37 36 35 34 32 32 32 33 33 32 33 33 33 35 35 36 39 38 39 41 43 45 45 45 43 42 42 44 45 42 40
47 45 43 43 42 40 39 39 38 45 41 40 38 38 38 37 36 37 37 36 36 36 36 36 36 37 37 39 41 41 42 44 45 47 45 45 42 43 44 46 46 44 41
47 46 44 42 42 39 37 39 41 41 42 48 40 41 41 41 40 40 40 41 40 39 39 39 40 40 40 42 44 44 45 46 49 46 42 41 42 44 47 49 47 43 43
54 49 45 44 43 42 41 40 42 43 39 37 42 45 43 44 43 44 44 44 44 44 42 42 43 43 43 44 44 46 49 51 48 44 39 38 42 46 49 50 47 44 44
52 56 48 47 45 44 43 47 48 47 45 45 46 46 46 47 47 47 48 46 46 46 46 46 46 46 46 46 46 48 50 47 46 44 43 41 46 49 50 48 45 45 44
49 48 49 52 48 47 50 53 51 52 53 53 52 52 54 56 55 52 50 49 50 50 49 49 48 47 46 47 50 49 44 45 45 44 44 45 49 49 48 45 45 44 45
52 49 47 49 48 57 59 54 54 55 58 60 62 62 60 58 57 55 54 53 52 52 51 50 48 48 49 50 48 44 46 47 42 45 48 49 48 47 46 46 46 46 47
Wind_Direction
227 228 230 229 230 232 229 231 237 254 266 252 239 237 244 252 295 325 337 348 350 353 356 350 343 343 345 349 353 351 350 353 351 353 349 349 351 351 349 347 343 340 338
225 227 229 228 229 231 232 234 237 249 266 263 253 251 260 296 314 320 330 337 348 354 348 342 339 340 346 347 355 352 350 355 349 350 348 349 348 347 346 344 342 340 339
225 228 232 233 234 235 239 237 237 241 248 252 251 258 280 296 309 317 326 329 345 353 344 338 335 336 339 349 355 353 350 352 350 350 351 349 348 347 346 345 343 339 338
224 225 230 232 237 242 242 243 238 237 238 241 247 256 273 289 304 314 317 331 345 352 346 341 334 337 340 348 350 349 347 348 348 346 347 346 346 344 345 344 342 338 339
227 229 232 234 236 243 245 241 237 235 233 235 242 251 267 287 299 310 319 333 344 348 344 341 335 338 336 345 348 345 341 340 341 341 342 343 342 340 340 339 338 338 338
225 230 232 235 234 239 244 241 229 226 227 226 231 242 273 288 298 317 325 331 340 342 345 340 334 336 338 342 340 339 336 335 333 337 336 336 335 335 335 336 336 338 337
227 229 233 234 237 239 242 239 226 220 221 220 228 240 266 278 293 311 316 328 336 338 338 335 331 333 333 333 332 331 331 329 330 334 334 333 333 333 333 334 335 335 334
230 231 232 236 238 240 237 235 226 221 221 220 224 236 253 268 284 299 315 325 327 327 324 323 323 325 326 329 327 328 330 330 330 331 332 331 330 331 330 332 331 333 333
233 236 234 236 239 237 235 231 224 220 228 231 230 233 245 258 278 297 312 316 316 316 315 318 319 319 324 326 326 327 328 327 325 327 329 328 328 329 327 326 328 331 331
236 238 236 234 237 237 231 228 227 223 228 240 246 251 257 268 280 294 304 305 307 309 313 314 314 317 321 324 325 324 324 322 323 325 326 325 326 326 323 322 326 328 327
238 240 239 235 236 238 232 227 227 227 227 238 247 255 262 271 280 290 293 294 297 303 306 309 313 316 321 324 323 324 321 321 323 324 324 324 323 321 320 321 324 325 325
240 243 241 237 237 238 235 229 227 228 230 234 243 250 255 263 275 284 291 293 299 304 308 309 309 314 318 318 318 319 319 319 320 321 321 320 319 318 318 321 323 324 324
239 242 245 241 237 238 235 233 230 230 233 238 242 247 253 257 264 273 278 284 290 296 300 301 304 309 311 312 313 316 315 315 317 317 317 317 315 316 317 317 319 321 321
242 247 252 254 249 244 238 235 232 232 234 238 245 248 253 258 263 270 277 282 288 293 296 298 300 302 303 305 306 310 311 312 314 315 316 315 315 316 314 315 316 319 318
241 246 248 249 249 247 241 239 236 236 237 240 247 252 256 261 266 271 275 280 287 291 294 295 295 295 299 302 304 307 309 311 312 314 314 313 313 312 313 314 315 316 315
239 244 248 249 247 245 241 241 239 240 241 243 248 253 258 263 267 270 274 280 286 290 291 292 292 294 298 300 303 304 307 309 310 313 313 311 310 311 311 313 314 314 311
239 242 247 248 247 245 238 240 243 243 244 247 252 257 260 264 266 269 275 281 285 287 287 289 291 293 297 299 300 303 305 308 310 312 311 310 310 309 310 312 314 314 310
238 240 244 245 246 247 244 242 242 244 246 248 253 256 260 263 264 271 277 280 282 284 286 289 291 293 296 297 299 300 303 305 309 310 309 310 309 308 310 312 314 312 307
236 239 241 242 244 246 246 246 244 244 245 248 252 256 261 263 267 273 276 281 283 284 285 287 289 292 293 295 296 298 300 304 306 309 308 309 308 307 309 313 312 309 307
237 239 241 241 243 246 249 258 242 247 248 250 254 258 260 263 269 274 277 280 283 284 285 286 288 291 293 294 295 296 298 301 304 307 307 308 306 305 308 311 310 307 305
240 242 242 244 245 247 251 255 260 243 243 256 258 261 265 268 273 275 278 280 281 283 284 286 288 289 290 291 293 295 296 298 304 305 306 305 303 304 307 309 307 304 301
239 239 242 243 247 246 249 254 257 264 261 251 255 264 268 271 273 276 280 281 281 282 284 286 287 288 290 290 292 292 295 300 304 305 302 302 303 304 306 306 304 301 298
236 239 240 243 245 245 244 247 254 254 253 258 254 261 265 269 272 277 278 280 281 282 282 284 286 288 289 289 291 294 297 300 302 302 302 301 302 303 304 302 300 297 298
242 236 236 238 241 245 247 249 250 251 253 255 257 258 262 266 270 272 274 276 279 281 283 284 285 286 288 290 292 296 299 299 301 300 301 303 303 301 299 298 296 296 296
241 245 240 241 239 245 245 246 247 253 257 259 261 262 265 269 270 269 270 273 276 278 280 281 282 285 286 289 293 295 295 296 297 295 297 301 299 298 297 296 295 295 294
241 241 245 246 248 241 244 253 257 256 259 258 260 262 263 265 266 267 270 272 273 275 276 278 280 282 286 289 291 290 291 293 291 295 298 298 297 296 295 294 295 295 294